Regional Weather Roundup
Issued by NWS

Home | Current Version | Previous Version | Graphics & Text | Print | Product List | Glossary On
Versions: 1 2 3 4 5 6 7 8 9 10 11 12 13 14 15 16 17 18 19 20 21 22 23 24 25 26 27 28 29 30 31 32 33 34 35 36 37 38 39 40 41 42 43 44 45 46 47 48 49 50
000
ASUS43 KLMK 201202
RWRKY
KENTUCKY REGIONAL WEATHER ROUNDUP
NATIONAL WEATHER SERVICE LOUISVILLE KY
800 AM EDT WED AUG 20 2014

NOTE "FAIR" INDICATES FEW OR NO CLOUDS BELOW 12,000 FEET
WITH NO SIGNIFICANT WEATHER AND/OR OBSTRUCTIONS TO VISIBILITY.

KYZ001>023-026-027-061>063-070>075-201300-
WESTERN AND SOUTH CENTRAL KENTUCKY

CITY           SKY/WX    TMP DP  RH WIND       PRES   REMARKS
PADUCAH        CLEAR     78  74  87 SW6       29.90R
HENDERSON      CLEAR     70  66  88 CALM      29.89R
OWENSBORO      CLEAR     73  73 100 CALM      29.90S
HOPKINSVILLE   CLEAR     75  75 100 SW5       29.93R
BOWLING GREEN  CLEAR     75  72  90 S5        29.94R
GLASGOW        CLEAR     72  72 100 CALM      29.95R FOG
$$

KYZ024-025-028>034-038-045-046-053-201300-
NORTH CENTRAL KENTUCKY

CITY           SKY/WX    TMP DP  RH WIND       PRES   REMARKS
LOUISVILLE/SDF MOSUNNY   72  68  87 SE6       29.92R
LOUISVILLE/LOU PTSUNNY   71  67  87 S3        29.92R
FORT KNOX      SUNNY     68  55  62 CALM      29.92R
$$

KYZ035>037-039>044-047>052-055>060-089>105-201300-
NORTHEAST KENTUCKY

CITY           SKY/WX    TMP DP  RH WIND       PRES   REMARKS
LEXINGTON      PTSUNNY   72  66  81 SE6       29.95R
COVINGTON      PTSUNNY   67  64  90 CALM      29.92R
FRANKFORT      SUNNY     70  66  87 CALM      29.92S
$$

KYZ054-064>069-076>088-106>120-201300-
SOUTHEAST KENTUCKY

CITY           SKY/WX    TMP DP  RH WIND       PRES   REMARKS
JACKSON        LGT RAIN  67  65  93 CALM      29.99R VSB 1/4
LONDON         PTSUNNY   72  68  87 CALM      30.00R FOG
SOMERSET       SUNNY     70  70 100 CALM      29.98R FOG
MIDDLESBORO    PTSUNNY   67  66  99 CALM      30.01R FOG
MONTICELLO     SUNNY     71  71 100 CALM      29.99R FOG
$$




USA.gov is the U.S. government's official web portal to all federal, state and local government web resources and services.